Location: Gulgong NSW 2852, Australia
(32.2976°S, 149.5548°E)
Time: 04:32:00
(UTC+10:00)

Envisat - Visible Passes

Search period start: 16 May 2021 00:00
Search period end: 26 May 2021 00:00
Orbit: 764 x 766 km, 98.1° (Epoch: 14 May)

Date Brightness Start Highest point End Pass type
(mag) Time Alt. Az. Time Alt. Az. Time Alt. Az.
16 May 3.5 04:29:34 10° NNE 04:34:33 59° ESE 04:37:45 22° S visible
16 May 4.8 06:11:53 10° WNW 06:13:52 12° W 06:15:53 10° WSW visible
16 May 5.2 18:22:52 10° SSW 18:27:01 25° WSW 18:31:08 10° WNW visible
17 May 5.0 03:53:52 10° ENE 03:57:58 25° ESE 04:00:16 18° SSE visible
17 May 3.8 05:32:20 10° NNW 05:36:47 30° W 05:40:27 14° SW visible
17 May 3.7 17:45:22 10° S 17:50:25 60° WSW 17:55:25 10° NNW visible
18 May 6.0 03:20:41 10° ESE 03:21:35 10° ESE 03:22:29 10° SE visible
18 May 2.9 04:54:48 10° N 04:59:52 75° WNW 05:02:59 24° SSW visible
18 May 5.8 18:49:30 10° SW 18:52:06 14° WSW 18:54:41 10° W visible
19 May 4.0 04:18:20 10° NE 04:23:09 45° ESE 04:25:31 27° SSE visible
19 May 4.5 05:59:11 10° NW 06:02:19 16° W 06:05:29 10° SW visible
19 May 4.8 18:11:07 10° S 18:15:39 32° WSW 18:20:09 10° NW visible
20 May 5.3 03:43:03 10° ENE 03:46:38 20° ESE 03:48:05 17° SE visible
20 May 3.4 05:20:32 10° NNW 05:25:17 39° W 05:28:15 21° SW visible
20 May 3.2 17:33:51 10° S 17:39:00 78° WSW 17:44:05 10° NNW visible
21 May 3.0 04:43:20 10° NNE 04:48:26 84° ESE 04:50:49 33° S visible
21 May 5.6 18:37:21 10° SSW 18:40:46 18° WSW 18:44:11 10° WNW visible
22 May 4.4 04:07:11 10° NE 04:11:46 35° ESE 04:13:24 28° SE visible
22 May 4.2 05:46:57 10° NW 05:50:47 21° W 05:53:35 14° SW visible
22 May 4.3 17:59:26 10° S 18:04:16 42° WSW 18:09:02 10° NW visible
23 May 5.6 03:32:27 10° E 03:35:18 15° ESE 03:35:59 15° ESE visible
23 May 3.1 05:08:51 10° N 05:13:47 52° W 05:16:10 29° SW visible
24 May 3.3 04:31:58 10° NNE 04:37:00 64° ESE 04:38:45 40° S visible
24 May 4.8 06:15:01 10° WNW 06:16:22 11° W 06:17:43 10° WSW visible
24 May 5.3 18:25:26 10° SSW 18:29:26 23° WSW 18:33:24 10° WNW visible
25 May 4.8 03:56:09 10° NE 04:00:23 27° ESE 04:01:21 25° SE visible
25 May 3.9 05:34:56 10° NNW 05:39:15 28° W 05:41:32 20° WSW visible
25 May 3.8 17:47:51 10° S 17:52:52 55° WSW 17:57:49 10° NNW visible
